When you browse on this site, cookies collect data to enhance your experience and personalize the content and advertising you see.
Visit our Privacy Policy to learn more. By continuing to use the site, you agree to this use of cookies and data.
  • In Belgium
  • List of Countries
  • For 7 days
  • Water Temperature
  • Satellite Maps
  • Weather Map
  • Weather Widgets
  • user-avatar
    Login

    Hourly Weather Hasselt

    Today, 16 December, Sunday

    Time Temperature Precipitation Wind Pressure Humidity
    00:00 -1°C° 1.5 mm 5 mps 755 mmHg 84%
    01:00 -1°C° 0.8 mm 5 mps 755 mmHg 86%
    02:00 -1°C° 0.8 mm 5 mps 754 mmHg 88%
    03:00 -1°C° 0.8 mm 4 mps 754 mmHg 91%
    04:00 -1°C° 0.1 mm 4 mps 754 mmHg 92%
    05:00 -1°C° 0.1 mm 4 mps 754 mmHg 93%
    06:00 +1°C° 0.1 mm 3 mps 754 mmHg 94%
    07:00 +1°C° 0 mm 3 mps 754 mmHg 95%
    08:00 +1°C° 0 mm 3 mps 754 mmHg 96%
    09:00 +1°C° 0 mm 3 mps 754 mmHg 97%
    10:00 +2°C° 0 mm 3 mps 754 mmHg 97%
    11:00 +2°C° 0 mm 3 mps 755 mmHg 97%
    12:00 +3°C° 0 mm 3 mps 755 mmHg 98%
    13:00 +3°C° 0 mm 3 mps 755 mmHg 98%
    14:00 +3°C° 0 mm 3 mps 755 mmHg 98%
    15:00 +3°C° 0 mm 3 mps 755 mmHg 98%
    16:00 +3°C° 0 mm 3 mps 755 mmHg 97%
    17:00 +3°C° 0 mm 3 mps 755 mmHg 97%
    18:00 +2°C° 0 mm 3 mps 755 mmHg 96%
    19:00 +2°C° 0 mm 3 mps 756 mmHg 96%
    20:00 +2°C° 0 mm 3 mps 756 mmHg 96%
    21:00 +2°C° 0 mm 3 mps 757 mmHg 95%
    22:00 +2°C° 0 mm 3 mps 756 mmHg 95%
    23:00 +2°C° 0 mm 3 mps 756 mmHg 94%

    Tomorrow, 17 December, Monday

    Time Temperature Precipitation Wind Pressure Humidity
    00:00 +2°C° 0 mm 3 mps 756 mmHg 94%
    01:00 +2°C° 0.1 mm 3 mps 756 mmHg 93%
    02:00 +3°C° 0.1 mm 4 mps 756 mmHg 93%
    03:00 +3°C° 0.1 mm 4 mps 756 mmHg 93%
    04:00 +3°C° 0.3 mm 4 mps 756 mmHg 93%
    05:00 +3°C° 0.3 mm 3 mps 757 mmHg 93%
    06:00 +3°C° 0.3 mm 3 mps 757 mmHg 93%
    07:00 +3°C° 0.1 mm 3 mps 758 mmHg 93%
    08:00 +3°C° 0.1 mm 3 mps 758 mmHg 94%
    09:00 +3°C° 0.1 mm 3 mps 759 mmHg 94%
    10:00 +4°C° 0 mm 3 mps 760 mmHg 94%
    11:00 +4°C° 0 mm 3 mps 760 mmHg 94%
    12:00 +5°C° 0 mm 3 mps 760 mmHg 94%
    13:00 +5°C° 0 mm 3 mps 761 mmHg 94%
    14:00 +5°C° 0 mm 3 mps 762 mmHg 95%
    15:00 +5°C° 0 mm 3 mps 762 mmHg 96%
    16:00 +4°C° 0 mm 3 mps 763 mmHg 95%
    17:00 +4°C° 0 mm 3 mps 763 mmHg 95%
    18:00 +5°C° 0 mm 2 mps 764 mmHg 94%
    19:00 +3°C° 0 mm 3 mps 764 mmHg 94%
    20:00 +3°C° 0 mm 3 mps 765 mmHg 94%
    21:00 +2°C° 0 mm 3 mps 765 mmHg 94%
    22:00 +2°C° 0 mm 3 mps 765 mmHg 94%
    23:00 +3°C° 0 mm 3 mps 765 mmHg 94%

    Day after tomorrow, 18 December, Tuesday

    Time Temperature Precipitation Wind Pressure Humidity
    00:00 +3°C° 0 mm 3 mps 765 mmHg 94%
    01:00 +3°C° 0 mm 3 mps 765 mmHg 94%
    02:00 +3°C° 0 mm 4 mps 765 mmHg 93%
    03:00 +1°C° 0 mm 4 mps 765 mmHg 93%
    04:00 +3°C° 0 mm 4 mps 765 mmHg 93%
    05:00 +3°C° 0 mm 4 mps 764 mmHg 93%
    06:00 +3°C° 0 mm 4 mps 764 mmHg 93%
    07:00 +3°C° 0 mm 4 mps 764 mmHg 91%
    08:00 +3°C° 0 mm 4 mps 764 mmHg 90%
    09:00 +2°C° 0 mm 5 mps 763 mmHg 88%
    10:00 +3°C° 0 mm 5 mps 763 mmHg 83%
    11:00 +5°C° 0 mm 5 mps 762 mmHg 77%
    12:00 +6°C° 0 mm 5 mps 761 mmHg 72%
    13:00 +6°C° 0 mm 5 mps 760 mmHg 71%
    14:00 +5°C° 0 mm 5 mps 760 mmHg 70%
    15:00 +5°C° 0 mm 5 mps 759 mmHg 70%
    16:00 +4°C° 0 mm 6 mps 758 mmHg 70%
    17:00 +3°C° 0 mm 6 mps 758 mmHg 71%
    18:00 +3°C° 0 mm 6 mps 758 mmHg 71%
    19:00 +3°C° 0 mm 6 mps 757 mmHg 72%
    20:00 +3°C° 0 mm 6 mps 757 mmHg 73%
    21:00 +3°C° 0 mm 6 mps 757 mmHg 74%
    22:00 +4°C° 0.1 mm 6 mps 756 mmHg 75%
    23:00 +4°C° 0.1 mm 6 mps 756 mmHg 77%

    19 December, Wednesday

    Time Temperature Precipitation Wind Pressure Humidity
    00:00 +4°C° 0.1 mm 6 mps 756 mmHg 78%
    01:00 +5°C° 0.4 mm 6 mps 756 mmHg 81%
    02:00 +5°C° 0.4 mm 6 mps 756 mmHg 85%
    03:00 +5°C° 0.4 mm 6 mps 756 mmHg 88%
    04:00 +6°C° 0 mm 5 mps 756 mmHg 89%
    05:00 +6°C° 0 mm 5 mps 756 mmHg 90%
    06:00 +6°C° 0 mm 5 mps 756 mmHg 91%
    07:00 +6°C° 0 mm 4 mps 757 mmHg 91%
    08:00 +6°C° 0 mm 4 mps 757 mmHg 91%
    09:00 +6°C° 0 mm 4 mps 757 mmHg 91%
    10:00 +6°C° 0 mm 4 mps 757 mmHg 88%
    11:00 +7°C° 0 mm 4 mps 757 mmHg 85%
    12:00 +8°C° 0 mm 4 mps 757 mmHg 82%
    13:00 +8°C° 0 mm 3 mps 757 mmHg 84%
    14:00 +8°C° 0 mm 3 mps 757 mmHg 86%
    15:00 +7°C° 0 mm 3 mps 757 mmHg 88%
    16:00 +7°C° 0 mm 3 mps 757 mmHg 89%
    17:00 +5°C° 0 mm 3 mps 757 mmHg 90%
    18:00 +5°C° 0 mm 3 mps 757 mmHg 91%
    19:00 +5°C° 0 mm 3 mps 757 mmHg 92%
    20:00 +5°C° 0 mm 3 mps 757 mmHg 92%
    21:00 +5°C° 0 mm 3 mps 757 mmHg 93%
    22:00 +4°C° 0 mm 3 mps 757 mmHg 93%
    23:00 +4°C° 0 mm 3 mps 757 mmHg 94%

    20 December, Thursday

    Time Temperature Precipitation Wind Pressure Humidity
    00:00 +4°C° 0 mm 3 mps 757 mmHg 94%
    01:00 +4°C° 0 mm 3 mps 757 mmHg 95%
    02:00 +5°C° 0 mm 2 mps 757 mmHg 95%
    03:00 +4°C° 0 mm 2 mps 758 mmHg 96%
    04:00 +3°C° 0 mm 3 mps 758 mmHg 95%
    05:00 +3°C° 0 mm 3 mps 758 mmHg 95%
    06:00 +3°C° 0 mm 3 mps 758 mmHg 95%
    07:00 +3°C° 0 mm 3 mps 759 mmHg 94%
    08:00 +3°C° 0 mm 3 mps 759 mmHg 93%
    09:00 +3°C° 0 mm 4 mps 759 mmHg 92%
    10:00 +4°C° 0 mm 4 mps 759 mmHg 89%
    11:00 +5°C° 0 mm 5 mps 759 mmHg 85%
    12:00 +6°C° 0 mm 5 mps 759 mmHg 82%
    13:00 +5°C° 0 mm 5 mps 759 mmHg 84%
    14:00 +5°C° 0 mm 5 mps 759 mmHg 86%
    15:00 +5°C° 0 mm 4 mps 759 mmHg 87%
    16:00 +5°C° 0.1 mm 5 mps 759 mmHg 88%
    17:00 +5°C° 0.1 mm 5 mps 760 mmHg 88%
    18:00 +3°C° 0.1 mm 5 mps 760 mmHg 88%
    19:00 +5°C° 0.2 mm 5 mps 760 mmHg 88%
    20:00 +5°C° 0.2 mm 5 mps 760 mmHg 88%
    21:00 +5°C° 0.2 mm 5 mps 760 mmHg 88%
    22:00 +5°C° 0 mm 5 mps 760 mmHg 90%
    23:00 +4°C° 0 mm 4 mps 760 mmHg 91%

    21 December, Friday

    Time Temperature Precipitation Wind Pressure Humidity
    00:00 +4°C° 0 mm 4 mps 760 mmHg 92%
    01:00 +4°C° 0 mm 4 mps 759 mmHg 93%
    02:00 +4°C° 0 mm 4 mps 759 mmHg 93%
    03:00 +4°C° 0 mm 4 mps 759 mmHg 93%
    04:00 +4°C° 0 mm 4 mps 759 mmHg 93%
    05:00 +4°C° 0 mm 4 mps 759 mmHg 93%
    06:00 +4°C° 0 mm 4 mps 759 mmHg 94%
    07:00 +4°C° 0.3 mm 4 mps 758 mmHg 92%
    08:00 +5°C° 0.3 mm 5 mps 758 mmHg 90%
    09:00 +5°C° 0.3 mm 5 mps 758 mmHg 88%
    10:00 +5°C° 1 mm 6 mps 757 mmHg 87%
    11:00 +5°C° 1 mm 6 mps 756 mmHg 86%
    12:00 +5°C° 1 mm 7 mps 754 mmHg 85%
    13:00 +5°C° 0.9 mm 7 mps 754 mmHg 85%
    14:00 +6°C° 0.9 mm 7 mps 753 mmHg 84%
    15:00 +6°C° 0.9 mm 8 mps 752 mmHg 84%
    16:00 +7°C° 0.6 mm 8 mps 752 mmHg 86%
    17:00 +8°C° 0.6 mm 7 mps 752 mmHg 87%
    18:00 +9°C° 0.6 mm 7 mps 752 mmHg 88%
    19:00 +9°C° 0.1 mm 7 mps 752 mmHg 87%
    20:00 +8°C° 0.1 mm 7 mps 753 mmHg 85%
    21:00 +8°C° 0.1 mm 7 mps 753 mmHg 83%
    22:00 +8°C° 0 mm 6 mps 754 mmHg 86%
    23:00 +7°C° 0 mm 6 mps 755 mmHg 88%
    Show more